Flag Weather past 2 weeks in Villavicencio, Colombia

Now
70 °F

Partly sunny.


Feels Like: 70 °F
Forecast: 63 / 90 °F
Wind: 14 mph from Southeast

Location: Bogota / Eldorado

Current Time: Nov 28, 2014 at 1:39:21 PM

Latest Report: Nov 28, 2014 at 1:00 PM


Visibility: N/A

Pressure: 30.25 "Hg

Humidity: 40%

Dew point: 45 °F

Location of VillavicencioLocation

Historic Weather in Villavicencio — Graph

°F

Villavicencio temperature yesterday

Maximum temperature yesterday: 64 °F (at 10:00 AM)
Minimum temperature yesterday: 45 °F (at 5:00 AM)
Average temperature yesterday: 55 °F

Past Weeks' High & Low Weather Summary

 TemperatureHumidityPressure
High82 °F (Nov 16, 8:00 AM)100% (Nov 15, 3:00 AM)30.76 "Hg (Nov 15, 3:00 AM)
Low41 °F (Nov 15, 6:00 AM)43% (Nov 18, 10:00 AM)29.93 "Hg (Nov 16, 8:00 AM)
Average56 °F79%30.30 "Hg
* Reported Nov 13 12:00 Noon — Nov 28 12:00 Noon, Villavicencio, Weather by CustomWeather, © 2014

Note: Actual official high and low records may vary slightly from our data, if they occured in-between our weather recording intervals... More about our weather records

Advertising

Villavicencio weather history for previous 24 hours

 ConditionsComfort  
Time TempWeatherWind HumidityBarometerVisibility
12:00 PM
Nov 28
68 °FPartly sunny.12 mph43%30.29 "HgN/A
11:00 AM68 °FBroken clouds.12 mph46%30.31 "HgN/A
10:00 AM63 °FBroken clouds.10 mph59%30.33 "HgN/A
9:00 AM59 °FPartly sunny.9 mph63%30.34 "HgN/A
8:00 AM57 °FPartly sunny.9 mph77%30.34 "HgN/A
7:00 AM50 °FScattered clouds.3 mph88%30.31 "HgN/A
6:00 AM48 °FPassing clouds.2 mph94%30.29 "HgN/A
5:00 AM45 °FPassing clouds.5 mph93%30.28 "HgN/A
4:00 AM46 °FPassing clouds.2 mph100%30.26 "Hg5 mi
3:00 AM46 °FPassing clouds.6 mph100%30.27 "Hg5 mi
2:00 AM48 °FPassing clouds.3 mph94%30.28 "Hg5 mi
1:00 AM50 °FPassing clouds.5 mph94%30.29 "HgN/A
12:00 AM48 °FPassing clouds.2 mph100%30.31 "Hg5 mi
11:00 PM
Nov 27
48 °FPassing clouds.6 mph94%30.32 "Hg5 mi
10:00 PM48 °FPassing clouds.3 mph100%30.33 "Hg5 mi
9:00 PM52 °FPassing clouds.2 mph94%30.32 "Hg5 mi
8:00 PM52 °FPassing clouds.2 mph94%30.30 "Hg5 mi
7:00 PM57 °FPassing clouds.2 mph88%30.27 "HgN/A
6:00 PM57 °FPassing clouds.5 mph88%30.25 "HgN/A
5:00 PM61 °FScattered clouds.2 mph77%30.23 "HgN/A
4:00 PM57 °FScattered showers. Scattered clouds.2 mph82%30.24 "HgN/A
3:00 PM61 °FThunderstorms. Partly sunny.9 mph77%30.26 "Hg5 mi
2:00 PM63 °FScattered showers. Partly sunny.12 mph73%30.26 "Hg5 mi
1:00 PM64 °FPartly sunny.12 mph68%30.28 "Hg5 mi
Weather by CustomWeather, © 2014

See weather overviewHow to use our weather pages